Showing default

COSMOS 2448 (GLONASS), 33468

Orbit data source: Space-Track

COSMOS 2448 (GLONASS), 33468 is a Commonwealth of Independent States-origin payload satellite in MEO that was launched on Thu, 25 Dec 2008 UTC via a PROTON-M/DM-2 launch vehicle from the Tyuratam Missile And Space Complex (TTMTR). Payloads include a variety of satellites, spacecraft, and rockets equipped with specific instruments for various scientific and technological missions. These include communications satellites like Starlink; space stations such as the ISS; scientific satellites like the Hubble; Earth observation satellites from companies like Planet Labs, Umbra, and HawkEye 360; GPS; miniature CubeSats for education and research; and military/defense satellites.

Loading next visibility...
COSMOS 2448 (GLONASS) details
Identifier
33468, 2008-067C
Orbit
MEO
Last TLE update2 days ago
Origin
Flag of CISKVR/IACG (CIS)
ManufacturerResehetnev ISS
MissionNon-operational Defense Navigation
Bus & MotorURAGAN, Unknown motor
Mass1,450 kg wet, ~1,200 kg dry
Launch date (UTC)
2008-12-25 (16 years ago)
Launch vehicle
PROTON-M/DM-2
Launch site
Tyuratam Missile And Space Complex (TTMTR)
Object type
Payload
Rocket body
Debris
Shape & HBRCyl + 1 Ant + 2 Pan, 7.8 m
Radar Cross Section8.467 m², Large (>1 m²)

Expand to show TLE details & history

TLE from 2 days ago
0 COSMOS 2448 (GLONASS)
1 33468U 08067C   24359.94648968 -.00000040  00000-0  00000-0 0  9997
2 33468  64.5010  87.8703 0002634 236.4984 123.4960  2.13116064124541
Epoch: 2024-12-24T22:42Z
Definitive object data (Epoch: 2024-12-24T22:42:56.708Z)
Latitude0.00002°
Longitude13.1931°
Altitude19,133.032 km
Speed3.953 km/s
True Right ascension05h 51m 30s
True Declination0° 00' 00"
Sunlit
Object was in daylight at TLE epoch
Visualization TLE readout
Latitude3.74628°
Longitude-168.6472°
Altitude19,125.615 km
Speed3.954 km/s
Apparent Right ascension18h 27m 16s
Apparent Declination-5° 45' 53"
Sunlit
Object is in daylight
Visualization observer readout
Local Sidereal Time13:21:50
Azimuth103.246° ESE
Elevation6.634°
Doppler factor1
Orbital elements
Apogee altitude19,135.116 km
Perigee altitude19,121.679 km
Semi-major axis25,506.535 km
Eccentricity0.0002634
Inclination64.501°
RAAN87.8703°
Arg. of periapsis236.4984°
True anomaly123.52117°
Mean anomaly123.496°
Eccentric anomaly123.50858°
Mean motion0.5328 °/min
BSTARUnknown
Orbital period675.67 mins
Loading maneuver chart data...
Loading historical data...
Loading historical data...
Loading historical data...
Loading historical data...
Loading historical data...
Loading historical data...
Loading historical data...

COSMOS 2448 (GLONASS) Visibility forecast

Observer location: undefined°, undefined

Span
Click to sort rows by Start time (UTC) header in descending order
Start Az.
Max El. time (UTC)
Max El. Az.
Max El.
End time (UTC)
End Az.
316 mins2024-12-27 06:09:03.916Z188.371° SSW2024-12-27 08:30:03.916Z291.54° WNW44.82°2024-12-27 11:25:03.916Z63.814° ENE
|